Tracking 19575 objects as of 20-Feb-2019
HD Live streaming from Space Station
objects crossing your sky now

NOAA 1

Track NOAA 1 now!
10-day predictions
NOAA 1 is classified as:


NORAD ID: 4793
Int'l Code: 1970-106A
Perigee: 1,429.8 km
Apogee: 1,480.2 km
Inclination: 101.7 °
Period: 114.8 minutes
Semi major axis: 7825 km
RCS: 3.071 m2 (large)
Launch date: December 11, 1970
Source: United States (US)
Launch site: AIR FORCE WESTERN TEST RANGE (AFWTR)
aabbcc
Your satellite tracking list
Your tracking list is empty




NASA's NSSDC Master Catalog

Two Line Element Set (TLE):
1  4793U 70106A   19051.20007581 -.00000035  00000-0  61732-4 0  9998
2  4793 101.7188 121.2391 0032163 155.0239 271.6931 12.53988617205994
Source of the keplerian elements: AFSPC